Weather WX

World > North America > United States > North Dakota

Amidon, North Dakota Regional Weather

Lat: 46.48N, Lon: 103.32W
Wx Zone: NDZ040
Warning FLW WEATHER ALERT - (More Info. Click Here) Warning
Feedback

Amidon, ND Regional Weather

Expires:201907171000;;773181
ASUS43 KBIS 170910
RWRND 

NORTH DAKOTA REGIONAL WEATHER ROUNDUP
NATIONAL WEATHER SERVICE BISMARCK ND
400 AM CDT WED JUL 17 2019

NOTE: "FAIR" INDICATES FEW OR NO CLOUDS BELOW 12,000 FEET WITH NO
SIGNIFICANT WEATHER AND/OR OBSTRUCTIONS TO VISIBILITY.



NDZ018>021-031>035-040>046-171000-
SOUTHWEST NORTH DAKOTA
  
CITY           SKY/WX    TMP DP  RH WIND       PRES   REMARKS
BISMARCK       CLOUDY    66  64  93 VRB3      29.84R                  
DICKINSON      MOCLDY    58  58 100 S5        29.80F                  
GARRISON         N/A     63  63 100 SE6       29.80F                  
HETTINGER ARPT PTCLDY    62  60  93 N12       29.81F                  
$$
 

SKY/WX - Weather  TMP - Temperature  DP - Dew Point  RH - Relative Humidity
WIND - Wind Direction/Speed PRES - Barometric Pressure VSB - Visibility
WCI - Wind Chill Index E13G22 Wind - East Wind 13 mph/Gusts of 22 mph